Theta_e
310 311 311 313 315 314 312 312 314 312 311 311 310 310 310 309 310 310 311 310 309 312 314 313 313 312 312 314 317 327 341 345 345 344 344 344 343 342 342 342 342 342 340 339 340 340 339 339 339 339 339 339 339 339 338 338 338 338 338 337 337 336 336 336 337 337 336 335 334 333 332 333 333 332 332 332 331 332 332 332 332 333 334 334 334 334
311 312 313 313 313 312 312 314 316 313 311 311 310 310 310 309 310 310 311 310 310 312 313 311 312 312 312 316 318 326 339 343 342 345 345 343 343 342 341 342 341 340 338 340 340 338 339 339 339 339 338 339 338 338 338 338 338 338 337 338 337 336 336 335 335 336 336 336 335 334 333 333 332 332 331 331 331 331 333 332 331 331 333 334 334 334
311 313 313 311 311 312 312 312 314 315 314 312 310 310 310 309 310 310 311 311 310 311 312 310 313 316 316 318 320 324 331 332 332 338 341 342 343 342 341 341 341 339 339 340 339 339 339 338 338 338 338 338 337 337 337 337 337 337 337 337 337 337 336 335 334 334 334 335 335 334 333 333 333 332 332 331 332 333 334 334 333 333 334 334 334 335
311 313 312 309 309 312 312 311 314 315 314 313 312 311 310 309 309 310 311 312 311 311 313 313 317 321 320 321 322 323 323 325 327 332 335 337 340 341 339 339 340 340 340 340 339 338 338 338 337 337 337 337 337 337 337 336 336 337 338 337 336 337 336 336 335 334 334 335 335 334 333 333 333 333 333 333 333 333 333 333 334 333 333 334 334 334
311 311 310 308 309 312 312 311 313 313 312 315 315 311 310 310 310 311 311 312 313 312 314 316 317 320 322 325 326 324 325 328 330 330 331 331 332 335 337 338 338 339 339 339 339 338 337 337 336 336 336 336 336 337 337 337 336 336 337 336 336 336 335 335 335 335 334 334 334 333 332 333 333 333 333 334 334 333 333 333 333 333 333 333 334 333
312 310 309 309 310 311 311 311 312 312 312 313 314 313 311 311 311 311 311 313 313 312 312 313 313 317 323 327 328 326 328 331 330 330 331 331 329 329 334 338 337 337 338 337 337 337 336 336 335 335 335 335 335 335 336 337 335 335 335 334 335 335 334 335 335 335 334 334 333 332 333 333 333 333 334 334 333 334 333 333 333 333 333 333 333 333
312 309 309 310 309 310 311 310 310 312 312 311 314 313 310 311 312 311 312 312 312 312 312 311 312 316 321 326 328 327 328 331 331 331 331 330 329 329 332 337 337 337 337 336 335 334 335 335 335 335 334 334 333 333 334 334 334 335 335 335 334 334 334 334 335 335 335 335 334 333 333 334 333 333 334 334 333 334 334 334 334 334 333 333 333 332
311 310 310 310 310 310 311 311 310 311 311 312 315 314 309 310 311 312 312 311 312 314 313 312 313 316 318 324 328 327 329 330 331 331 330 330 330 331 334 336 337 337 336 335 334 333 334 335 335 335 334 333 333 332 333 333 334 334 335 335 335 334 334 333 334 335 335 335 335 334 333 333 334 333 333 333 333 333 333 333 334 334 333 332 332 332
313 312 311 310 311 311 311 312 311 310 310 313 314 311 309 311 311 311 311 312 315 314 311 312 314 315 319 324 328 328 329 331 332 330 330 330 330 333 334 334 335 335 335 335 333 334 334 333 332 332 332 332 331 332 332 332 333 333 334 334 334 334 333 333 334 335 335 335 335 333 333 332 332 332 332 332 332 332 332 333 333 333 332 332 332 332
312 313 312 311 312 312 312 312 310 310 311 311 310 310 310 311 312 312 312 313 316 314 311 313 313 314 319 325 329 330 331 332 332 330 329 330 330 331 331 330 330 330 330 329 329 330 330 328 328 328 329 329 328 329 330 330 331 332 333 334 334 334 334 333 334 334 335 334 333 333 332 332 332 332 332 332 332 332 332 332 333 332 332 332 332 332
311 312 312 311 312 312 311 310 309 309 310 309 309 311 311 312 313 314 314 314 314 313 312 312 314 314 315 323 332 333 333 333 332 331 331 330 330 331 329 328 328 327 326 325 325 326 326 326 326 326 327 326 327 327 328 328 329 329 331 332 333 334 333 334 334 334 334 333 333 332 332 332 332 332 331 331 331 331 332 332 332 332 331 331 332 332
310 311 311 312 312 311 310 309 307 307 309 310 312 312 311 313 314 314 314 313 313 313 313 312 313 314 317 326 332 333 333 332 332 333 332 331 331 330 328 327 326 325 325 325 325 325 326 326 326 326 326 325 326 327 326 327 327 328 328 330 331 332 332 333 333 333 333 332 332 331 331 331 331 332 331 331 331 331 332 331 331 331 331 331 332 331
312 311 310 310 311 311 311 310 308 307 308 310 312 312 312 314 315 315 314 313 314 313 312 312 312 317 327 331 332 333 333 333 332 332 331 332 331 329 328 326 325 325 325 325 325 325 326 326 326 326 326 325 326 326 326 326 327 327 328 328 328 329 330 330 331 330 330 330 330 329 329 329 330 330 330 330 331 331 331 330 329 330 331 331 331 331
313 312 310 309 311 312 311 311 310 309 309 310 312 312 312 314 316 316 313 313 315 313 313 313 314 323 332 332 331 332 333 332 331 331 331 330 330 329 328 327 327 326 326 326 326 326 326 327 326 326 326 326 326 326 326 327 326 327 327 327 328 328 328 328 329 329 329 329 329 328 328 327 328 329 329 330 330 330 331 330 329 330 331 331 330 330
313 313 312 310 311 311 312 312 311 310 310 310 311 311 312 314 315 315 314 314 315 314 315 316 318 326 332 331 331 332 331 331 330 330 330 329 328 329 328 328 328 327 326 326 325 326 326 326 326 325 325 325 325 325 326 326 326 327 327 327 327 327 327 328 328 328 329 328 328 328 328 327 327 328 329 329 329 330 330 329 329 330 331 331 331 330
312 313 313 310 310 311 311 311 310 310 311 310 309 311 312 314 316 314 313 315 317 314 316 321 324 328 330 330 329 330 331 330 329 329 329 328 327 327 328 327 326 326 325 324 324 324 324 324 324 323 323 322 322 323 323 324 325 325 326 327 327 327 327 327 328 329 329 329 328 328 328 328 327 327 328 328 329 329 329 328 328 330 331 330 330 330
311 312 312 309 309 310 311 311 310 311 313 311 310 311 311 311 316 316 311 312 316 314 316 321 328 330 329 331 330 328 330 330 329 328 328 327 327 326 326 325 324 323 323 321 321 322 322 322 321 321 321 320 320 321 322 323 324 324 326 326 326 326 326 327 327 328 328 328 328 328 328 328 327 328 328 328 328 329 328 328 328 329 330 330 330 329
313 314 312 310 310 310 311 311 309 310 312 311 311 311 310 310 313 316 313 312 313 316 320 323 330 332 330 333 332 329 330 330 329 328 327 327 326 326 325 324 322 321 320 319 319 319 319 320 319 319 319 318 319 319 320 321 322 323 324 325 326 326 326 327 327 327 327 327 327 327 328 328 328 328 328 328 328 328 328 328 328 329 330 330 330 329
313 314 312 311 311 309 309 311 310 309 309 310 312 311 311 313 313 312 314 314 312 318 324 326 329 330 330 332 332 331 330 331 330 328 327 327 326 325 323 321 320 319 318 318 317 317 318 318 318 318 317 317 317 317 318 319 320 321 322 323 324 324 325 326 326 326 327 327 327 327 327 327 328 328 328 328 328 328 328 328 328 328 329 329 329 329
313 316 314 310 310 309 309 312 312 311 310 310 311 310 311 315 313 312 313 314 314 318 323 330 330 328 328 329 330 331 330 330 330 328 328 327 324 323 321 320 318 317 316 316 316 316 316 317 317 317 316 316 316 316 316 317 318 319 320 321 321 322 323 324 324 325 326 327 327 327 327 327 327 328 329 329 329 328 328 328 328 328 328 328 329 329
315 319 317 310 308 310 311 312 313 313 311 310 312 311 312 313 311 312 312 311 313 318 322 328 329 326 324 325 328 330 330 330 329 328 327 325 322 320 318 317 316 315 315 314 314 314 315 316 315 315 315 315 315 315 315 316 317 317 318 318 319 320 321 322 322 323 324 326 327 327 327 328 328 327 328 329 329 329 328 328 328 329 328 328 329 330
316 318 320 315 311 313 315 314 313 312 311 312 313 313 313 314 311 312 313 310 312 317 321 325 326 324 322 324 329 330 329 329 327 326 324 321 319 317 315 314 313 313 312 311 311 312 313 313 314 314 314 314 314 314 314 314 315 316 316 317 317 318 319 320 320 322 322 324 325 326 327 327 327 327 327 328 329 329 329 329 329 329 329 329 330 331
321 321 319 316 315 315 315 314 312 312 314 314 313 312 313 315 315 312 313 313 313 315 319 320 320 323 324 326 330 330 328 328 325 323 321 318 316 314 312 311 310 310 310 309 310 311 311 311 311 312 312 312 312 312 313 313 314 315 315 316 316 317 318 318 319 320 321 323 324 325 326 326 327 327 327 327 328 329 329 330 329 329 329 330 330 331
323 321 317 316 316 315 313 313 314 315 316 315 315 315 313 314 316 316 316 317 316 316 319 316 316 323 326 327 330 328 326 326 324 321 319 316 315 313 311 310 309 309 309 309 309 310 310 310 309 309 310 310 310 311 311 312 312 313 314 314 315 316 317 319 319 320 321 322 324 324 325 325 326 327 328 328 329 329 329 329 329 329 329 329 329 330
318 317 317 317 317 318 317 316 316 318 319 321 320 318 314 312 316 318 317 317 317 317 317 314 315 324 328 328 329 327 324 323 321 319 317 315 314 312 310 309 308 308 309 309 309 309 309 308 308 308 308 308 308 308 309 310 311 311 312 313 314 314 316 318 319 319 321 323 324 324 324 325 325 326 327 328 328 329 329 329 328 329 329 329 329 330
319 317 318 318 317 318 319 319 318 318 320 321 319 319 316 314 316 318 316 314 314 316 316 314 319 326 328 329 329 327 324 322 318 316 315 313 312 312 310 308 308 308 308 308 307 307 307 307 307 307 307 307 307 307 308 309 309 310 311 312 313 313 315 316 317 319 320 322 323 324 324 325 325 326 327 327 328 328 328 328 328 329 329 329 330 331
321 317 318 321 322 318 317 320 319 319 323 323 321 322 320 317 319 320 316 313 315 317 317 319 326 330 331 331 330 327 323 321 318 315 314 312 311 310 309 308 307 307 306 306 305 306 306 306 306 306 305 306 306 306 307 308 308 309 310 311 312 313 314 315 316 318 319 320 321 322 324 325 325 325 326 327 328 328 328 328 327 328 329 329 329 330
324 320 318 320 322 319 317 319 318 320 326 326 323 323 323 321 322 321 318 317 318 317 317 322 328 331 332 331 329 326 322 320 318 315 313 311 310 309 308 307 307 306 305 305 304 304 304 305 306 306 305 305 306 306 306 307 308 308 309 309 311 312 313 314 316 317 317 318 319 320 322 324 325 325 326 326 327 327 327 327 327 327 328 329 329 328
325 322 318 319 319 318 317 318 317 318 320 320 320 322 323 324 326 325 325 323 321 318 319 324 329 331 331 329 326 323 321 318 315 313 311 310 309 307 307 307 306 305 304 304 304 303 303 303 304 305 305 305 305 306 306 306 307 308 308 309 310 311 313 314 315 316 316 316 317 318 320 323 324 325 325 326 326 326 326 326 326 327 327 328 328 327
322 321 318 320 321 318 317 317 317 317 318 319 319 319 320 321 323 325 325 322 323 326 326 327 329 328 325 324 321 318 316 313 311 310 309 308 308 307 306 305 304 304 304 304 303 302 303 303 304 304 304 304 305 305 305 305 306 307 308 308 309 311 312 312 313 314 315 315 316 317 319 322 324 325 325 325 325 325 325 325 325 325 326 325 326 325
321 321 320 321 321 319 317 316 317 318 319 320 319 318 319 321 321 322 323 322 324 329 327 327 329 325 318 316 315 313 311 310 309 308 307 307 307 306 306 304 303 303 303 303 302 302 302 303 303 303 304 304 304 304 304 305 306 306 307 307 308 310 311 312 312 313 314 314 315 316 318 320 322 324 324 324 323 324 324 323 323 324 323 323 323 324
324 319 318 321 323 321 318 316 317 318 319 320 320 319 320 322 322 322 322 322 325 328 327 327 328 324 315 313 312 310 309 308 308 307 306 306 305 305 305 303 302 302 302 302 302 301 302 303 303 302 303 303 304 304 304 304 305 305 306 306 308 310 312 313 312 312 312 313 314 316 317 318 320 322 322 322 322 322 322 322 322 322 322 322 322 323
324 320 318 321 323 322 319 319 320 321 321 321 320 318 318 320 321 321 320 319 322 325 325 325 323 318 313 312 311 310 308 307 307 306 305 305 304 304 303 302 302 302 301 301 301 301 302 302 302 302 302 303 303 303 303 304 304 304 305 306 308 310 312 313 312 311 311 312 313 315 316 316 318 319 319 320 321 321 321 321 321 321 321 321 321 321
319 319 318 318 321 322 321 321 321 321 321 321 316 314 316 318 318 319 318 317 317 318 317 316 315 312 311 311 310 308 306 305 304 304 303 303 303 303 302 302 302 301 301 301 301 301 301 302 301 302 302 302 302 303 303 304 304 304 304 306 308 310 310 311 312 310 309 310 311 313 314 315 316 316 316 317 319 319 319 319 318 318 317 318 319 319
318 318 316 316 319 321 318 319 321 321 320 317 314 313 315 315 314 315 315 313 313 313 312 312 311 309 308 308 306 305 304 303 302 302 302 302 303 303 302 302 301 301 301 301 301 301 301 301 301 301 301 302 302 302 303 304 304 304 304 305 307 307 307 309 310 309 308 309 310 312 313 314 314 314 314 315 316 316 316 315 315 315 315 316 316 316
318 317 315 314 316 318 317 318 321 320 316 314 314 314 314 315 315 317 317 314 312 312 312 310 308 306 305 305 304 303 303 302 301 301 301 301 301 301 301 301 301 301 301 301 301 301 301 301 301 301 301 301 301 302 301 302 303 304 304 306 307 305 305 308 310 308 307 308 309 310 311 312 312 311 311 312 313 312 312 312 312 312 313 315 315 314
317 317 316 315 315 316 318 318 318 318 317 317 317 314 313 315 315 316 318 315 311 310 310 308 306 305 304 304 303 303 302 303 303 301 300 300 300 301 301 301 300 300 301 300 300 300 301 300 300 300 300 301 301 301 301 301 301 302 304 306 306 303 303 305 307 307 307 307 307 309 309 310 311 309 308 308 308 308 308 309 309 310 311 313 314 314
316 317 319 318 314 313 317 317 317 319 320 319 316 312 310 311 310 311 315 316 311 309 308 307 306 305 304 304 303 303 306 309 308 303 300 300 300 300 300 300 301 301 301 300 300 300 300 300 300 300 300 300 300 300 300 300 300 301 302 304 304 302 303 303 303 306 308 306 306 308 308 308 309 308 307 306 306 306 306 307 308 308 309 311 313 313
315 314 316 317 314 313 316 318 318 319 317 315 314 310 308 308 308 310 317 320 313 308 307 307 305 304 304 304 304 304 310 315 310 302 300 300 300 300 301 301 301 300 300 300 300 300 300 300 300 300 299 298 298 299 300 300 299 300 301 302 301 301 302 302 302 305 306 306 307 308 308 307 307 306 305 305 304 305 305 305 305 306 306 307 310 312
317 313 313 316 314 312 314 315 314 314 313 311 311 309 307 306 308 314 320 320 313 307 307 306 305 304 304 304 305 307 310 313 307 301 300 300 299 300 300 300 300 300 300 300 300 300 300 300 300 299 298 298 298 298 298 298 298 299 300 300 300 300 300 300 301 303 306 306 307 307 307 306 306 305 305 304 304 305 304 304 304 304 304 304 306 308
315 311 310 313 313 312 314 315 313 311 310 309 308 307 306 307 312 318 320 315 310 307 306 305 305 305 304 304 305 305 304 304 302 300 299 299 299 300 300 300 300 300 299 299 299 299 300 300 299 299 298 298 297 297 296 296 297 298 298 299 299 299 300 301 302 303 305 306 306 306 306 305 305 305 304 304 304 304 304 303 303 303 302 302 303 304
312 310 310 311 310 309 310 311 312 310 307 306 306 306 307 312 317 317 313 309 307 307 305 305 305 304 303 303 303 301 300 300 300 299 299 299 300 300 300 300 300 300 300 299 299 299 299 299 299 299 298 297 297 297 296 295 296 297 298 298 298 298 301 304 305 304 304 305 305 306 306 305 304 304 305 305 305 305 305 305 304 303 302 302 302 301
309 311 312 309 307 307 309 311 314 313 307 304 307 309 310 313 314 311 307 307 307 306 305 305 304 302 301 301 300 299 299 299 299 299 299 300 300 300 300 300 300 300 300 299 299 299 299 299 298 298 297 297 298 298 297 296 296 297 297 297 298 299 302 305 306 306 305 305 304 304 305 305 304 304 305 305 306 305 305 305 305 305 304 303 302 301
307 309 311 308 306 309 313 312 311 309 304 303 307 311 310 308 307 307 307 307 306 305 304 303 302 300 300 299 299 299 299 299 299 299 299 300 300 300 300 300 300 300 299 298 298 299 298 298 298 298 297 297 298 299 298 296 295 296 296 297 298 300 302 304 305 306 305 305 304 303 303 304 303 304 304 305 305 305 304 304 304 304 304 303 302 301
305 305 307 306 304 306 309 308 305 304 303 304 305 306 305 303 304 305 307 306 305 304 303 302 301 300 299 299 299 299 299 299 299 299 299 299 300 300 300 300 299 299 298 298 298 298 298 298 299 298 298 297 298 298 299 298 296 296 296 296 297 298 300 301 303 304 304 304 304 302 302 302 303 303 304 304 304 304 303 303 303 302 302 302 302 301
302 302 303 305 305 305 305 305 304 304 304 303 302 302 302 302 303 303 304 305 304 303 302 301 300 300 299 299 299 299 299 299 299 299 299 299 300 299 299 299 298 298 298 298 298 298 299 299 299 298 298 298 297 298 298 298 298 297 296 296 296 296 297 298 299 300 301 302 302 302 302 302 302 302 302 302 302 302 301 301 300 300 299 300 300 299
303 303 304 305 306 306 307 305 304 304 304 302 301 301 301 301 301 301 302 302 302 301 300 300 300 299 299 299 299 299 299 298 298 298 298 299 300 299 299 299 298 298 297 297 298 298 298 298 298 298 298 297 297 297 298 298 298 298 298 298 297 297 296 296 296 297 297 298 299 299 299 299 299 299 298 298 298 298 298 297 297 297 297 297 297 297
304 304 305 305 305 306 306 305 303 302 302 301 301 301 300 300 300 299 300 300 300 300 300 300 300 300 299 299 299 299 298 298 298 298 299 299 300 299 299 299 298 298 297 297 297 298 298 297 297 297 297 297 297 297 298 298 298 298 299 298 298 298 297 296 296 295 295 295 295 295 295 295 295 295 295 295 295 295 295 295 296 296 296 296 296 296
303 304 304 304 305 305 305 303 303 303 302 301 300 300 300 299 299 299 299 299 299 299 299 299 299 299 299 299 299 298 298 298 299 299 299 299 300 299 299 299 298 298 297 297 297 298 297 297 297 297 297 297 297 298 298 298 298 298 299 298 298 298 298 297 296 296 296 295 295 295 295 295 295 295 295 295 295 295 295 296 296 296 296 296 296 296
303 305 304 304 306 306 305 304 304 305 305 302 300 300 299 299 299 299 299 299 299 299 298 298 299 299 299 299 299 299 298 299 299 300 300 300 300 299 298 298 298 297 297 297 297 297 297 297 297 297 297 297 297 298 298 297 297 298 299 299 298 298 298 298 297 297 296 296 296 296 296 295 295 295 295 295 295 295 295 295 295 296 296 296 296 296
303 304 304 305 306 306 304 303 303 303 303 301 299 299 299 299 299 299 299 299 299 299 299 299 298 298 299 299 299 299 299 299 299 300 300 299 298 297 298 299 298 297 297 297 297 297 297 297 297 296 296 296 297 297 298 298 298 298 298 298 299 298 298 298 298 297 297 296 296 296 296 296 296 295 295 295 295 295 295 295 295 295 295 295 296 296
Wind_Speed
4 6 7 7 7 7 6 6 5 3 5 6 5 4 4 3 3 1 1 2 2 1 3 4 6 5 2 4 6 2 4 7 8 7 7 6 4 4 5 2 3 4 5 6 7 7 6 6 5 4 3 3 3 2 3 3 4 5 5 6 7 9 10 13 17 17 15 13 14 13 13 17 19 16 12 12 13 12 11 11 10 11 12 10 11 12
4 7 7 7 7 8 7 6 5 5 4 5 5 4 3 3 3 1 0 2 1 2 0 1 3 1 5 6 7 3 4 6 6 8 9 8 6 4 4 2 2 3 4 6 8 9 8 7 6 5 4 4 3 2 3 4 4 4 5 6 8 10 11 13 15 15 15 17 17 14 11 13 15 16 15 14 15 14 12 11 11 13 12 11 11 12
5 7 6 6 7 7 5 4 6 6 4 3 3 3 3 3 2 1 1 2 1 1 1 2 4 4 6 5 7 6 1 1 2 5 7 7 7 5 3 2 1 4 4 5 8 8 9 9 8 7 6 4 2 1 2 3 4 5 7 8 10 12 13 13 12 12 13 15 17 14 11 10 11 13 14 15 14 14 12 11 11 12 13 12 12 13
6 6 7 7 7 9 6 4 6 5 2 2 2 3 3 2 2 3 2 2 1 1 1 6 7 5 5 3 6 8 3 3 6 3 2 3 3 4 3 1 1 4 5 5 7 8 10 10 8 8 7 5 3 1 2 3 5 7 8 9 11 13 13 13 13 13 13 14 16 14 11 11 10 10 11 12 12 12 12 12 12 13 14 14 13 13
6 6 9 8 7 9 7 6 7 5 3 1 2 4 3 3 3 2 2 1 0 2 2 7 7 4 5 4 5 6 4 5 8 8 7 7 5 1 3 4 4 4 4 5 7 8 9 9 9 8 7 5 3 1 2 3 6 7 8 9 11 11 11 11 12 12 12 13 12 10 9 10 11 10 10 11 11 12 13 13 13 14 15 15 14 13
5 6 10 10 7 8 9 7 7 7 5 2 4 6 5 5 4 1 2 0 2 3 3 3 3 3 3 4 5 6 4 6 7 8 9 8 8 5 1 5 6 6 6 7 8 8 9 9 9 7 5 4 2 0 1 3 6 8 8 9 11 12 11 11 10 11 12 13 11 7 8 10 11 12 12 12 12 12 13 12 12 12 14 16 15 14
3 6 8 10 9 9 9 7 6 6 6 4 4 6 5 4 3 3 3 1 2 2 1 1 2 3 3 2 5 5 3 6 7 9 10 9 8 7 4 4 5 6 7 8 9 8 8 8 7 5 3 3 3 3 4 5 8 9 9 9 11 12 12 11 10 11 12 13 13 10 10 12 13 14 13 10 11 12 12 11 10 10 12 15 15 14
5 8 6 8 9 7 7 7 6 7 6 3 3 7 8 6 6 6 4 3 2 0 2 0 2 3 4 2 4 4 1 7 9 10 10 9 9 8 7 5 4 6 7 7 8 8 8 7 6 4 2 3 4 4 5 6 8 9 9 9 10 11 12 12 12 12 13 15 15 12 11 12 13 15 13 10 10 12 12 11 10 9 12 15 16 15
5 9 9 10 8 5 5 5 7 9 5 2 3 6 7 5 6 4 3 3 0 1 4 3 2 3 3 1 3 2 3 7 9 9 9 9 9 9 8 8 7 6 6 7 7 8 8 8 6 4 3 3 3 4 5 7 7 8 8 9 9 10 11 13 13 12 13 14 14 13 13 12 12 12 13 11 10 11 12 12 10 10 12 14 15 14
2 7 10 11 8 6 6 4 9 11 5 2 6 6 4 3 2 2 2 2 1 3 5 3 1 2 3 1 2 3 4 5 6 7 7 8 8 8 9 9 8 8 7 8 8 9 11 9 8 6 6 6 6 5 7 9 9 9 9 9 10 10 10 12 13 11 11 13 13 13 13 13 12 12 11 11 11 12 12 13 12 11 13 13 13 13
1 2 4 5 5 6 6 4 6 8 5 7 8 6 5 3 2 1 1 1 3 4 2 2 3 2 3 1 1 2 2 3 4 5 6 8 8 8 8 8 9 9 8 9 9 11 12 11 9 8 8 8 7 7 8 10 10 10 10 9 10 11 11 12 13 12 12 13 13 12 12 13 13 12 12 13 13 13 13 14 14 13 13 14 13 13
2 4 3 3 3 5 6 4 1 1 4 6 5 4 5 3 1 2 1 1 5 4 1 2 3 2 2 2 1 2 3 4 4 4 6 7 8 8 8 8 9 9 9 9 9 10 11 11 11 11 10 10 9 10 11 11 11 10 9 9 11 11 11 12 13 11 10 11 12 11 11 12 13 12 12 14 15 15 13 14 15 13 12 13 13 13
2 3 1 1 4 6 8 6 2 1 4 5 4 6 7 4 3 4 3 3 4 2 1 2 3 0 2 2 3 4 5 5 4 5 6 7 9 9 8 8 8 8 9 9 9 9 9 10 11 12 12 11 11 12 12 13 12 10 9 9 10 11 12 13 14 13 13 14 15 14 13 13 13 12 12 14 15 15 14 15 17 15 12 12 13 13
3 2 2 2 3 6 9 8 5 4 6 7 6 8 8 5 5 5 3 2 2 2 1 3 2 2 3 3 4 4 4 5 6 6 7 9 9 9 9 9 9 9 9 9 9 8 9 10 12 13 12 12 12 12 12 12 12 12 11 10 10 11 12 12 13 14 15 16 18 18 16 14 13 12 12 12 14 15 14 16 18 18 14 14 14 13
6 3 5 7 4 6 10 8 7 7 6 6 3 4 5 4 4 4 4 3 3 3 2 1 0 2 3 4 5 4 4 6 7 7 9 9 9 9 9 10 10 10 9 8 8 9 10 12 13 13 14 13 13 14 14 13 13 13 12 10 8 9 9 9 10 11 13 14 15 15 13 11 11 11 9 10 13 15 14 16 19 19 16 16 15 14
5 3 4 5 2 8 12 6 6 10 7 4 1 1 4 3 3 3 1 1 2 3 2 2 1 1 2 3 4 3 4 7 7 8 9 9 9 10 10 10 10 9 8 8 8 9 11 14 14 14 14 14 14 15 15 15 15 14 12 10 8 8 8 9 9 10 10 11 11 11 9 7 8 8 7 8 11 13 15 16 19 19 16 16 15 13
3 1 2 3 3 8 11 8 8 7 6 4 3 4 2 1 4 5 2 2 1 3 2 2 0 2 2 4 6 5 3 6 7 8 9 9 10 10 9 9 9 8 8 8 8 9 12 14 14 14 14 14 14 15 16 16 15 13 11 10 11 11 12 12 11 10 9 10 10 9 7 4 4 4 5 5 8 12 15 15 17 18 16 14 14 13
3 2 1 3 5 5 3 8 6 2 3 5 6 6 3 2 2 3 3 2 1 3 2 1 1 3 3 4 8 8 6 6 7 8 9 9 9 9 9 8 9 8 8 8 9 10 11 13 13 14 14 14 14 15 15 15 14 12 11 11 12 12 13 12 11 10 9 9 9 8 7 4 3 3 5 5 6 10 13 12 13 16 16 14 13 13
2 2 1 2 4 3 2 6 6 1 0 2 6 6 3 2 3 2 2 3 4 3 2 1 1 4 5 3 8 12 10 8 8 7 9 9 9 8 7 8 8 8 7 7 7 8 9 11 12 13 13 13 14 14 15 15 14 14 14 14 14 13 13 12 10 10 10 10 9 8 7 6 6 4 6 8 7 9 11 11 11 14 17 15 13 12
0 2 2 0 1 4 4 5 5 5 1 2 5 6 1 1 3 2 2 2 4 4 2 2 1 4 5 3 8 13 11 10 9 7 8 9 9 8 7 7 7 6 6 6 7 7 9 11 12 12 12 12 14 17 18 18 18 17 16 17 16 14 14 13 11 11 11 10 9 8 7 6 6 6 7 8 9 11 11 11 11 12 16 17 14 13
0 1 3 2 1 3 4 3 5 8 6 4 6 6 2 1 2 2 2 2 2 4 3 4 2 4 2 2 7 12 11 10 10 8 8 9 9 8 7 6 6 5 5 6 6 7 8 10 11 12 12 12 15 18 20 20 20 18 16 16 15 13 14 14 13 12 11 10 9 8 8 6 4 4 5 6 8 11 12 12 12 13 14 17 16 14
0 0 2 3 3 4 2 0 3 5 5 6 6 6 4 4 4 5 3 1 2 3 4 4 3 3 1 1 6 10 11 11 11 10 9 8 9 9 7 7 6 5 5 6 6 7 9 10 11 11 12 13 15 17 17 18 18 18 17 16 14 13 14 14 14 13 12 10 9 9 8 6 4 3 1 5 8 11 12 12 11 12 14 15 15 15
1 1 2 2 2 1 1 1 1 2 3 4 3 3 4 4 4 5 5 3 2 2 2 2 2 1 2 1 7 11 11 11 12 11 10 9 8 9 7 7 6 6 6 7 7 8 9 10 11 12 13 13 14 14 15 15 15 15 16 16 15 15 16 15 14 13 12 11 11 9 8 7 6 5 2 4 9 11 11 9 7 9 12 14 14 14
1 1 2 2 2 2 2 2 2 2 3 4 3 1 2 2 2 3 3 4 4 3 3 3 2 2 2 3 8 12 12 11 11 11 11 9 7 8 7 6 6 6 7 8 8 9 10 11 12 13 13 13 13 14 14 14 15 15 16 18 18 17 17 17 15 15 14 14 14 11 9 7 6 5 4 5 7 8 8 8 8 10 13 14 13 12
2 0 2 3 4 4 4 4 3 2 2 2 3 2 1 4 6 4 3 3 3 2 2 4 4 2 4 7 9 11 13 12 11 11 11 9 7 7 6 6 5 6 8 9 9 10 11 13 13 14 14 13 13 14 14 14 16 16 17 19 20 20 21 19 16 15 16 16 16 14 12 9 6 6 7 7 6 6 7 7 9 12 13 14 13 12
2 0 1 3 4 4 4 4 3 3 3 2 2 2 2 3 5 5 4 4 5 3 2 3 3 3 5 9 11 12 13 12 11 11 10 8 8 7 6 5 6 7 8 9 9 9 10 12 14 14 14 13 13 13 14 15 16 17 18 20 22 22 22 19 15 15 16 16 16 16 16 13 9 8 8 7 6 6 6 6 8 12 13 13 14 13
3 2 3 3 3 2 1 1 1 1 3 3 3 2 2 1 1 3 4 4 4 6 3 2 5 9 10 11 13 14 13 12 11 11 10 8 8 8 6 6 7 7 7 7 8 9 10 11 12 13 13 13 13 14 14 15 16 17 18 20 23 24 21 17 15 17 18 17 18 17 17 15 11 9 9 8 7 6 6 6 7 10 13 14 13 13
4 3 3 6 7 4 2 2 3 3 3 3 3 3 2 1 1 4 5 4 6 7 4 3 8 13 14 14 15 14 12 11 11 10 10 9 8 7 7 7 8 8 7 7 9 10 10 10 11 12 12 13 14 15 15 14 15 17 17 18 22 24 22 17 16 18 19 18 19 19 17 15 13 10 9 8 7 5 6 6 6 9 12 14 14 14
5 3 0 4 8 7 6 4 5 8 8 7 7 4 2 2 0 3 3 3 5 4 3 8 13 11 11 14 14 13 12 11 11 11 11 9 8 8 8 9 10 8 8 8 10 9 9 9 10 11 12 13 14 14 15 14 15 17 18 19 22 24 23 20 17 19 20 20 19 19 18 16 13 11 9 8 7 6 6 6 7 9 12 14 15 15
3 3 2 4 8 10 9 6 6 8 9 10 10 8 5 3 3 5 3 1 1 1 3 13 14 6 4 8 11 12 12 11 11 11 11 10 9 8 9 10 9 7 7 8 9 8 8 8 10 11 12 13 14 14 14 14 14 16 18 20 23 24 24 22 19 18 20 22 21 19 18 16 13 11 10 9 7 6 6 5 7 10 11 13 16 15
1 3 2 2 6 7 8 7 7 7 10 12 11 10 8 6 6 6 5 3 2 4 8 14 14 6 3 6 11 12 11 11 11 11 11 10 9 9 9 10 9 7 7 7 8 7 8 9 11 12 12 13 13 13 13 13 14 17 19 21 23 24 24 24 22 19 20 22 22 20 17 16 14 10 9 8 5 4 4 3 6 9 10 11 13 14
2 4 2 1 4 3 4 5 6 7 11 13 11 10 9 6 5 5 4 2 2 9 15 13 9 6 5 8 11 11 11 12 11 10 10 9 9 9 9 10 8 6 6 7 7 7 8 9 11 11 12 12 13 13 13 13 14 17 20 22 23 24 25 25 24 21 20 21 23 21 18 17 15 11 9 7 4 1 1 3 5 7 8 9 11 12
2 5 3 1 4 3 1 1 2 3 6 7 5 6 6 4 4 5 5 4 2 7 11 6 4 7 9 10 11 11 11 11 9 8 9 9 9 10 10 10 8 6 6 6 6 7 8 8 8 9 10 11 11 12 13 14 15 16 18 20 23 24 25 26 26 24 21 20 22 22 19 17 16 14 12 9 7 4 4 6 7 8 8 9 10 11
3 5 3 1 4 4 2 2 1 4 5 2 2 4 3 1 5 6 6 6 6 5 7 6 8 11 9 9 11 11 10 10 9 9 8 8 8 9 10 9 7 5 5 5 6 7 7 6 7 9 10 10 12 14 16 18 18 17 18 20 23 25 25 26 27 26 23 21 22 22 20 19 18 17 15 12 9 8 8 8 10 9 10 11 11 11
4 4 3 2 3 4 1 1 4 5 2 1 2 1 2 6 9 11 10 8 7 9 12 12 12 11 10 10 11 12 12 12 11 10 9 8 7 8 10 9 6 5 5 5 6 6 7 6 8 11 12 12 14 16 19 20 21 21 21 22 24 24 23 25 27 26 24 23 23 23 20 19 20 19 17 14 11 11 11 11 12 12 11 13 14 14
6 4 3 3 2 3 3 2 3 2 0 1 2 3 4 6 8 7 8 8 6 8 12 13 11 10 12 12 11 12 13 13 12 10 9 9 8 8 9 8 6 5 5 5 5 6 7 7 9 11 13 13 15 17 18 20 22 23 23 24 25 22 21 25 28 28 25 23 22 22 20 19 20 19 17 16 14 14 14 14 15 15 14 14 15 15
4 4 4 3 1 2 4 3 2 2 2 2 4 3 2 3 3 2 3 3 3 4 9 13 12 11 11 12 12 11 11 11 9 8 8 9 8 8 9 9 7 6 5 5 6 7 8 9 12 14 15 16 18 18 18 20 22 24 24 26 26 21 19 24 27 28 26 22 20 22 21 18 19 19 18 18 17 16 15 15 16 16 16 16 16 15
4 2 3 3 1 1 3 4 3 3 3 3 5 3 2 3 3 1 2 2 2 4 8 12 14 12 11 11 11 10 8 6 6 5 6 7 8 9 9 9 7 6 6 8 9 10 11 12 15 16 17 19 19 18 18 20 22 24 25 25 23 20 19 22 24 26 27 23 21 22 22 19 18 18 18 20 19 16 15 16 16 17 18 20 21 20
8 4 3 4 3 2 3 3 3 2 1 2 6 4 2 2 2 2 2 2 5 8 10 12 14 13 11 12 10 8 5 4 4 4 5 6 7 8 7 7 7 7 8 10 12 12 12 14 16 18 20 20 19 17 18 20 21 23 25 23 21 20 20 21 22 24 26 25 22 22 22 21 19 18 19 20 20 18 17 17 17 18 19 22 24 25
6 4 3 4 4 3 3 3 1 1 1 2 4 3 1 0 1 3 3 2 7 11 11 12 14 13 12 11 8 4 1 1 4 6 7 8 8 7 7 7 7 8 10 12 12 12 14 16 18 20 21 20 19 17 19 21 22 23 23 21 20 21 20 19 20 22 23 24 24 22 21 21 21 20 20 20 20 20 20 19 18 19 20 21 24 27
3 3 2 3 4 3 3 2 1 0 1 2 1 1 1 1 3 4 2 2 7 11 10 10 12 12 12 9 5 2 3 5 8 10 9 9 8 7 7 8 9 10 11 12 12 14 16 18 19 20 20 20 20 20 21 23 24 24 22 20 19 20 18 18 20 22 23 25 25 24 23 23 23 22 22 21 22 23 22 21 21 21 21 22 25 27
2 2 2 2 3 3 2 2 2 0 1 1 0 2 2 2 3 2 1 4 9 11 10 10 10 10 9 7 7 7 8 11 13 12 9 8 8 7 7 10 10 10 11 13 14 16 18 19 20 20 20 21 22 22 23 25 25 24 23 21 18 17 17 20 22 23 24 25 25 25 24 23 23 23 23 22 22 24 24 23 23 23 23 24 26 27
1 2 2 2 2 2 2 2 2 2 2 1 0 1 0 1 1 3 5 7 10 11 11 10 9 8 9 10 11 11 12 13 12 10 8 8 7 7 8 10 10 10 12 14 14 16 19 19 20 21 21 21 22 23 24 25 25 24 23 21 18 17 20 22 23 24 26 26 25 25 24 23 23 24 23 22 22 24 25 24 23 24 24 24 26 27
1 1 2 2 1 1 2 2 1 1 2 1 0 2 1 1 1 5 7 8 9 9 9 9 8 8 11 13 13 12 13 13 11 10 9 8 7 8 9 10 10 10 13 14 14 17 19 19 20 21 21 20 21 22 23 24 24 24 23 21 19 21 23 23 24 25 26 27 26 26 25 26 26 25 25 26 26 28 29 28 28 28 27 27 28 28
2 1 1 2 2 1 2 3 1 1 1 2 3 3 3 3 3 4 7 9 9 8 8 9 10 11 12 14 14 13 12 12 11 10 9 8 8 9 11 12 12 12 12 13 15 18 19 19 19 19 19 19 19 20 22 24 24 23 22 21 21 22 22 23 25 26 27 27 27 27 26 27 28 28 28 29 29 30 31 31 31 31 30 29 29 29
3 1 1 2 5 4 5 5 4 3 4 5 5 5 5 5 5 5 6 9 9 8 8 9 11 12 12 12 13 13 12 12 11 9 8 8 9 11 13 14 14 15 14 13 14 16 18 18 18 18 18 17 17 18 19 21 22 21 20 21 21 22 22 23 24 25 26 26 26 26 26 27 28 28 28 27 27 27 27 28 28 28 28 27 27 27
2 0 2 4 5 3 3 4 4 4 5 5 5 6 7 6 6 5 6 8 9 9 9 10 12 12 11 12 14 15 13 12 10 8 7 7 9 11 13 14 14 15 15 14 14 16 18 18 17 17 18 17 17 16 16 17 18 19 19 20 21 21 22 23 24 24 24 24 25 25 25 26 26 26 26 26 26 26 26 26 27 26 26 25 24 24
2 2 4 6 4 2 4 6 6 7 7 5 5 5 6 7 8 7 7 9 11 11 12 12 12 12 11 12 14 14 12 10 9 8 7 7 8 10 11 12 12 13 14 15 16 18 19 19 18 18 18 18 17 16 14 14 15 16 17 19 19 20 21 23 24 24 24 24 25 25 25 26 26 26 27 28 27 28 27 27 27 27 26 24 22 21
1 3 5 7 7 6 5 7 8 7 7 5 5 5 6 7 10 10 10 11 13 13 13 13 12 12 13 13 13 12 10 9 9 10 8 7 8 8 9 9 10 11 13 15 17 18 19 19 19 19 19 19 18 17 16 14 14 14 15 17 17 18 20 21 23 24 24 24 24 25 25 25 25 26 27 27 27 27 26 25 25 26 25 23 21 20
2 5 7 7 7 5 5 8 7 5 4 4 5 7 9 10 12 13 12 13 14 13 13 12 13 13 14 13 13 12 10 9 10 11 10 7 6 6 6 7 8 10 11 14 17 18 19 19 18 18 19 19 18 18 18 16 14 14 14 15 16 17 18 19 21 22 23 23 23 23 23 23 23 23 24 24 24 24 23 23 22 22 22 21 19 18
1 4 5 4 4 4 7 9 6 4 5 7 8 9 10 10 12 14 14 14 15 14 14 13 13 12 12 12 13 13 11 9 9 10 8 6 5 6 7 8 9 9 10 14 17 17 17 18 19 19 19 18 18 19 20 18 16 14 13 14 14 15 16 17 18 18 19 20 20 20 21 21 21 20 21 21 21 21 21 20 20 19 18 17 17 17
Wind_Direction
177 167 181 190 175 167 173 179 166 141 146 138 130 145 139 156 183 200 246 343 359 207 187 200 216 235 268 18 28 48 183 205 220 231 239 242 239 242 260 304 61 76 87 100 103 99 103 107 109 110 115 123 131 162 182 193 203 207 214 209 217 233 236 233 233 234 231 218 211 206 204 215 218 217 223 237 242 240 239 243 255 263 263 264 262 255
189 189 183 172 158 158 169 170 137 115 124 123 124 134 133 181 186 156 127 12 358 211 234 160 186 345 12 24 25 37 174 197 225 234 241 250 247 249 273 303 81 106 106 102 96 97 100 98 96 95 101 114 118 146 167 188 213 222 225 221 224 230 232 236 236 232 228 224 222 218 209 209 210 214 219 225 231 232 234 240 249 254 252 253 256 253
191 195 177 158 142 122 124 153 137 123 130 125 130 145 153 175 207 183 93 9 5 201 292 126 118 45 25 30 38 40 132 150 324 252 246 260 253 246 256 256 171 119 108 97 93 98 99 96 93 91 93 95 81 104 167 196 227 230 226 225 230 232 227 231 236 237 237 237 239 237 227 219 214 216 219 220 223 226 229 234 241 247 246 246 248 248
188 192 172 154 141 120 113 156 144 122 131 138 153 172 162 146 200 182 128 11 24 15 198 126 103 58 38 41 48 37 24 37 22 7 10 345 274 235 194 170 142 120 113 107 101 102 102 97 90 89 93 88 73 107 198 225 232 223 225 234 239 237 232 233 236 239 248 254 254 253 245 237 234 231 229 226 223 224 228 234 239 245 247 246 244 243
173 165 149 139 148 140 130 156 159 155 170 215 207 197 178 164 209 179 101 299 99 66 159 132 112 75 40 32 43 26 18 40 29 33 37 24 12 315 155 109 95 112 123 125 115 107 103 98 93 91 94 93 86 127 195 223 238 237 241 247 243 240 243 245 246 248 253 256 252 248 244 242 242 242 238 231 226 221 223 230 238 244 248 248 246 242
163 145 142 141 153 148 137 156 177 176 166 198 230 217 203 180 196 179 82 336 170 148 182 163 149 122 57 42 42 5 12 48 36 36 33 21 18 7 97 103 97 103 114 120 112 108 105 101 98 92 89 85 68 353 230 237 254 259 260 259 253 252 254 248 248 253 255 255 251 237 236 242 242 245 245 242 238 231 226 229 234 240 247 248 245 240
140 145 155 149 149 149 148 162 186 181 166 189 210 203 198 175 186 192 150 182 206 162 144 288 216 144 115 61 28 350 11 57 45 44 35 23 21 19 43 90 111 112 110 105 96 94 96 99 97 86 74 37 355 314 288 271 267 269 267 267 265 264 268 263 255 255 256 256 254 249 251 256 258 259 261 261 258 254 248 243 238 238 242 244 240 238
132 144 153 141 142 151 157 165 180 180 171 184 192 176 178 186 204 198 174 198 237 108 110 329 250 149 135 92 12 329 35 56 41 40 35 29 32 34 46 61 96 117 117 111 103 96 92 94 92 79 62 18 343 306 287 279 279 282 278 275 274 271 273 274 265 256 257 260 258 256 258 261 263 266 269 270 265 263 262 258 252 245 244 246 246 242
137 162 163 150 152 166 170 165 168 174 183 201 171 167 174 188 203 194 178 193 214 210 178 167 225 173 137 78 6 349 55 50 34 33 32 35 41 42 45 47 57 80 100 107 106 101 89 77 66 56 49 30 355 318 300 293 291 292 288 283 282 281 280 281 275 261 257 264 264 261 262 261 261 264 266 266 262 261 263 264 261 253 249 248 247 241
173 187 168 157 164 176 175 161 166 178 193 158 134 124 114 98 94 137 178 169 152 220 192 157 233 187 137 59 5 39 49 35 25 32 36 42 53 53 49 46 46 50 59 64 62 67 69 60 50 46 42 29 5 337 320 311 304 298 295 291 288 291 293 293 291 281 270 270 269 265 265 263 260 259 259 259 261 261 261 264 261 257 256 251 243 235
61 151 153 168 174 164 153 134 169 184 158 132 133 114 107 101 74 110 112 122 185 207 181 66 318 246 155 148 1 43 53 26 18 34 46 54 64 64 56 52 51 50 49 50 51 55 59 58 50 43 37 23 8 352 340 330 318 307 302 302 301 302 305 306 305 298 287 281 278 274 270 267 264 261 257 256 257 258 258 259 259 258 258 255 245 234
71 118 156 198 163 130 124 114 127 204 142 142 147 137 139 130 119 154 120 197 198 190 109 23 315 269 167 147 142 108 78 50 30 39 53 64 71 67 60 55 52 53 53 52 53 51 52 52 46 39 33 23 17 11 2 355 343 327 318 315 313 314 316 318 318 312 303 294 288 283 279 274 267 259 258 260 258 258 256 258 262 262 257 256 250 238
137 162 199 193 161 148 141 139 123 147 185 192 174 162 167 160 160 182 189 201 197 163 56 337 309 349 81 89 132 113 78 65 61 63 67 71 75 73 70 65 59 57 58 57 56 53 51 49 46 41 35 26 20 17 12 9 7 2 355 345 336 335 334 329 324 319 311 301 294 293 294 289 277 263 258 260 262 259 256 257 261 260 252 252 251 243
177 235 251 168 169 166 160 164 162 167 192 195 183 177 177 165 161 168 170 190 190 139 83 323 297 127 107 127 140 110 82 83 82 78 77 77 79 82 81 77 72 66 63 62 60 58 56 54 51 45 38 30 21 18 17 15 16 15 13 9 5 1 355 345 331 320 311 307 307 306 303 300 292 280 268 263 265 262 260 260 259 257 254 251 251 244
179 219 204 177 171 163 168 178 161 150 175 190 190 186 178 172 168 165 163 169 159 131 93 3 291 134 122 139 136 109 95 96 90 83 82 79 78 82 81 74 70 65 59 56 55 52 49 48 46 42 36 30 22 19 19 19 20 21 19 14 7 360 354 346 335 324 315 315 319 315 304 298 294 286 276 274 276 272 269 267 260 258 257 254 252 243
175 228 200 164 131 161 167 172 142 144 168 189 174 182 187 175 138 115 93 106 114 116 83 27 15 78 92 135 141 127 108 101 93 85 82 76 74 74 70 65 62 58 52 48 48 47 44 43 42 39 37 32 27 25 23 23 25 26 25 24 17 6 357 349 337 327 318 311 313 313 303 296 291 281 272 281 290 281 270 268 262 256 254 252 250 236
149 196 184 120 133 179 171 156 161 171 161 150 178 191 182 106 109 120 102 26 65 147 116 18 15 128 141 169 165 170 143 107 94 87 85 78 74 71 62 61 59 55 52 47 46 46 44 43 41 39 38 34 31 30 28 27 30 28 24 25 27 20 13 6 352 336 322 309 305 303 297 289 277 269 254 268 294 278 263 265 263 255 252 248 244 233
172 151 169 161 170 197 167 133 145 198 146 147 183 176 130 66 75 114 129 105 136 158 115 20 231 182 184 162 155 174 186 145 111 97 97 88 79 72 61 60 59 55 52 47 46 46 44 43 40 39 36 32 31 32 31 30 29 28 23 22 23 17 11 7 356 343 331 322 315 308 301 282 247 225 207 221 266 262 251 254 254 252 253 245 238 236
198 142 125 220 165 128 125 135 128 106 215 162 163 152 137 165 169 151 146 156 155 137 114 115 266 236 224 182 163 178 182 158 132 112 107 97 86 79 67 62 60 55 49 45 47 46 46 46 42 40 35 28 29 31 31 31 29 26 25 22 19 13 8 2 352 345 339 333 326 320 315 295 271 246 207 205 224 233 231 230 229 238 249 246 237 236
226 156 141 232 89 120 153 171 165 160 107 29 137 151 243 205 163 163 130 154 155 138 138 138 140 246 228 184 174 178 170 155 147 129 108 93 86 85 78 70 61 55 48 43 46 47 46 47 44 40 34 26 28 31 31 31 28 24 22 21 17 11 9 5 354 345 341 337 333 329 328 314 291 270 237 217 207 204 207 209 206 217 238 243 236 225
49 149 130 116 150 165 164 186 191 168 153 155 158 160 165 95 121 140 91 41 136 139 144 141 174 242 230 139 169 171 162 153 144 124 105 94 92 87 77 74 65 57 52 41 41 41 37 38 37 35 30 25 28 29 29 28 25 20 14 13 10 4 2 1 354 345 338 338 340 337 332 323 309 284 249 234 220 204 194 192 192 192 209 228 231 215
152 124 122 123 147 165 155 195 226 192 162 160 166 168 155 127 136 153 149 92 69 119 147 150 184 220 23 86 163 157 152 147 132 117 109 102 99 91 78 72 64 50 43 38 34 33 28 27 26 27 26 25 25 23 20 19 18 14 9 5 2 359 357 354 350 342 335 339 347 343 335 323 313 314 243 215 224 218 199 189 191 191 199 214 217 206
124 90 106 105 118 140 18 15 221 195 116 103 122 166 151 133 150 167 171 161 104 95 128 134 184 161 61 125 149 141 142 142 133 124 118 110 100 92 81 69 60 47 40 38 36 35 32 27 26 27 25 23 20 16 13 11 8 8 8 5 360 357 357 355 351 344 338 346 353 344 330 320 311 317 314 208 215 216 204 191 193 205 215 219 212 203
134 72 106 111 97 78 76 103 114 106 110 97 66 67 133 129 130 143 153 147 138 139 141 150 181 149 128 150 139 133 130 126 127 127 120 114 102 88 78 63 52 47 43 40 38 37 35 31 29 27 23 19 15 11 9 7 4 5 7 6 1 358 358 358 355 354 355 360 0 351 334 320 306 294 275 238 221 217 210 202 198 204 211 214 214 209
171 208 138 139 124 106 119 141 138 113 113 108 87 77 91 100 103 105 100 118 146 165 157 167 176 144 143 150 136 128 122 115 117 120 115 111 106 92 79 66 52 48 46 42 38 35 32 30 27 24 20 17 12 8 5 5 4 4 4 5 4 2 3 2 358 358 4 7 2 357 351 339 315 286 264 248 241 237 231 220 207 203 202 203 208 210
134 121 142 158 148 140 147 154 154 143 117 88 94 95 76 106 123 125 122 151 172 167 164 181 160 128 148 156 146 134 125 117 114 109 103 99 97 91 82 72 61 52 47 40 35 33 30 27 24 20 17 12 9 7 6 6 6 5 6 9 10 9 6 4 0 1 4 6 3 1 360 353 333 307 284 271 268 259 248 234 212 204 204 204 206 206
110 68 47 79 99 114 131 85 358 111 128 122 117 99 73 69 91 103 125 168 162 145 168 215 139 145 168 171 155 142 132 126 122 113 107 104 98 95 89 78 68 57 49 42 38 36 32 26 21 16 11 8 8 10 10 8 5 4 4 7 13 16 11 4 4 8 8 7 6 3 1 355 342 321 299 285 281 268 254 240 217 204 203 205 205 202
107 86 50 63 60 42 43 47 34 57 86 101 101 91 69 17 64 129 142 145 136 142 179 188 153 159 177 176 157 146 139 131 126 121 117 115 111 105 93 77 67 55 45 45 43 37 31 25 18 11 8 8 9 11 10 7 4 5 5 6 13 19 18 12 11 14 13 10 8 4 359 355 345 331 313 296 286 275 258 240 217 206 205 203 201 194
102 95 177 91 73 54 46 56 74 83 82 73 67 62 39 357 71 144 138 128 144 161 178 169 169 168 168 164 152 141 137 128 121 118 115 113 109 97 85 75 65 50 41 45 44 37 30 22 12 7 6 9 11 10 8 5 3 6 8 11 17 22 24 20 18 18 18 14 10 5 4 0 348 338 328 305 287 273 260 243 219 208 205 200 194 187
94 88 147 124 81 51 35 48 82 101 97 74 58 53 56 60 74 98 107 103 116 67 135 152 156 137 114 138 127 117 119 114 108 106 106 107 101 87 81 75 62 46 40 44 41 33 27 18 11 8 8 10 10 8 6 4 3 6 9 13 19 24 25 23 20 20 20 18 13 8 10 10 358 341 327 310 291 269 254 239 213 202 197 192 187 179
81 114 160 134 84 45 24 46 73 98 102 83 61 47 51 71 78 80 105 125 88 89 122 139 141 118 64 105 104 102 104 101 100 103 103 103 95 85 82 75 62 43 35 40 39 31 26 21 15 10 7 8 9 8 5 2 5 11 15 17 21 25 25 26 25 22 21 22 19 13 13 15 12 355 334 330 325 283 251 211 194 197 191 181 176 171
59 121 156 121 100 67 17 55 80 95 98 85 60 36 33 51 76 76 92 133 153 130 129 137 148 150 139 116 103 98 98 96 97 101 99 93 88 86 84 78 66 45 32 36 36 31 29 25 17 8 3 5 8 9 7 5 8 14 19 22 25 27 28 29 30 26 22 23 24 21 18 18 20 17 9 14 30 12 201 156 174 195 184 164 160 161
97 134 152 123 109 116 328 27 90 127 115 91 43 8 9 33 92 97 74 30 25 133 137 145 146 134 134 126 109 98 96 94 90 90 92 93 92 90 87 84 76 58 41 34 34 35 31 22 15 10 6 5 9 13 15 17 15 14 20 26 30 33 33 31 32 31 26 23 25 26 25 24 27 31 34 47 74 103 124 129 144 162 157 145 147 148
101 116 124 62 110 142 254 312 154 173 159 120 336 302 301 37 101 100 75 40 38 85 105 101 107 116 122 123 115 107 101 93 86 83 85 95 102 98 91 86 78 66 51 33 32 33 20 9 14 19 15 12 18 26 31 32 29 25 28 32 36 37 35 32 33 33 28 23 26 28 27 29 33 36 42 56 82 99 105 111 119 126 127 127 130 129
113 98 97 64 94 132 203 240 161 166 177 4 357 354 119 116 105 91 71 54 66 98 105 104 110 114 107 103 107 108 106 97 86 80 80 88 100 101 96 90 78 66 52 32 26 19 6 5 19 23 21 21 28 35 37 37 36 35 33 36 40 38 33 32 32 31 28 28 29 29 26 29 34 38 44 54 69 83 91 97 100 105 112 115 115 114
121 114 102 67 71 128 145 153 151 144 3 43 95 100 118 131 125 101 69 47 59 109 118 112 110 110 107 106 109 111 110 100 83 73 75 81 85 90 93 91 82 67 48 23 7 360 0 14 31 35 33 34 39 42 40 39 41 40 37 39 41 36 32 35 35 31 30 29 29 29 27 28 34 39 44 52 61 71 80 88 93 97 102 106 106 105
114 124 114 79 34 135 124 98 90 125 187 170 140 141 144 136 138 123 89 62 49 117 130 126 122 118 116 117 122 126 122 108 86 68 66 73 78 83 86 86 82 71 56 43 32 23 23 36 50 54 50 48 49 46 42 43 46 45 42 41 39 33 32 36 36 34 34 31 30 34 33 30 36 41 44 49 55 59 66 79 89 95 100 106 109 105
61 92 134 120 67 115 120 107 119 162 202 180 146 131 97 111 138 151 126 132 148 149 147 141 134 130 130 130 136 144 143 125 99 77 71 78 83 87 87 81 73 66 59 55 52 46 42 46 55 59 58 56 54 48 47 49 49 49 47 43 36 32 33 36 35 38 41 40 38 42 42 37 39 46 50 52 54 55 59 70 81 89 96 103 106 103
55 50 85 104 108 152 140 127 149 177 199 137 138 129 96 122 171 198 203 178 163 160 158 150 142 139 141 142 146 157 161 142 123 115 106 99 92 89 88 80 69 62 59 59 57 51 47 52 58 61 60 56 51 50 53 53 51 51 50 43 37 35 35 35 36 42 47 48 47 49 49 47 45 50 55 57 58 61 63 66 74 81 86 93 99 102
45 33 61 97 116 136 119 103 139 178 42 108 135 129 96 79 197 204 209 171 155 161 162 156 149 145 143 144 145 151 155 114 131 135 128 114 101 89 84 78 71 65 61 61 62 60 57 59 61 59 56 54 52 54 58 57 54 53 49 43 40 39 36 35 41 47 51 54 54 54 54 55 55 56 58 61 64 68 70 70 72 75 75 78 88 94
34 23 53 103 114 116 110 104 109 72 93 144 150 1 321 225 196 196 201 126 142 153 153 149 146 143 141 141 132 93 62 85 114 127 125 116 106 95 88 85 79 72 67 65 66 68 66 64 63 60 57 58 60 59 58 59 57 54 50 45 40 40 41 45 51 54 56 57 59 60 60 61 62 62 64 65 67 69 69 68 69 71 70 72 79 83
90 73 68 98 105 98 91 94 106 145 80 87 4 333 300 216 182 158 105 124 139 143 140 138 137 133 127 115 104 106 104 102 110 117 116 109 104 95 88 86 81 74 71 70 71 73 73 69 65 63 61 63 64 60 59 61 60 58 55 49 42 42 51 57 59 60 61 62 62 63 65 66 67 69 70 69 69 69 67 65 66 68 68 70 74 73
82 101 106 118 111 90 89 104 147 163 112 37 261 176 234 294 140 115 114 127 136 137 134 130 124 118 113 107 106 110 109 107 110 111 106 102 98 87 79 80 77 72 72 72 73 76 78 73 67 65 64 66 66 63 62 63 62 61 59 54 50 55 61 62 63 64 65 67 67 66 68 69 70 72 73 72 72 71 70 68 68 68 67 68 69 68
13 10 134 156 198 214 128 133 163 135 89 24 321 137 93 26 114 140 136 131 133 136 132 123 114 114 117 117 115 112 111 112 114 111 105 98 88 80 75 72 69 70 73 76 78 81 81 77 70 67 68 70 70 67 66 66 65 63 62 60 61 65 66 66 66 66 66 68 70 70 71 72 72 74 75 75 75 75 74 73 71 70 70 69 70 69
30 358 98 119 120 77 74 101 146 165 81 55 53 76 79 72 91 127 135 133 135 137 132 125 122 121 122 121 119 117 117 117 115 110 104 95 85 80 76 71 69 72 76 79 81 82 81 78 73 70 68 71 74 72 70 70 69 66 64 65 66 67 68 68 68 69 70 71 72 73 74 75 76 76 77 78 78 78 78 75 72 69 67 65 66 67
78 52 18 99 127 113 66 69 105 114 81 68 70 77 81 83 83 91 112 126 131 128 122 124 127 129 128 125 122 122 123 120 113 105 98 93 88 84 78 73 71 74 79 79 78 79 80 77 74 70 65 66 72 76 75 73 71 69 67 68 68 67 68 69 69 71 72 73 74 75 76 76 77 77 77 77 77 78 78 76 74 72 67 63 62 63
127 94 76 112 139 146 85 80 101 102 92 87 87 86 84 84 82 81 98 117 121 115 112 117 123 126 125 124 124 125 123 117 109 103 98 93 89 85 80 73 69 72 75 74 74 78 78 74 68 64 61 59 62 70 75 75 73 72 71 70 69 68 69 71 72 72 72 73 75 76 76 76 76 75 75 74 72 72 71 71 71 69 65 62 61 60
155 145 118 112 110 99 105 113 104 87 82 81 87 96 97 94 91 88 95 108 110 107 108 112 117 119 118 120 122 122 118 113 110 109 103 96 94 90 84 77 75 77 79 78 78 78 74 69 65 61 58 56 56 61 68 73 74 74 74 72 69 68 69 72 74 73 72 72 73 74 75 75 76 75 74 73 70 68 66 65 66 65 62 59 58 58
157 142 129 120 111 99 106 126 121 96 77 68 77 96 108 111 109 105 104 107 107 106 106 106 106 110 115 118 119 118 114 111 110 110 107 101 99 96 86 81 85 89 88 85 83 79 73 68 65 60 57 57 57 58 61 67 73 74 74 73 71 69 70 73 74 73 72 71 71 71 71 72 73 74 75 74 72 70 67 65 66 66 65 61 58 57
168 147 137 129 130 143 163 161 150 122 104 114 115 113 117 120 118 115 114 115 115 113 112 110 106 106 109 114 119 120 117 113 113 115 113 107 101 98 95 98 103 102 99 94 89 83 78 71 66 61 59 58 60 61 63 68 75 75 72 71 69 68 71 73 73 71 71 70 69 68 68 68 69 71 73 75 75 74 71 68 66 65 64 62 58 55
196 165 157 135 127 156 162 157 147 104 109 129 130 123 124 125 120 119 121 122 119 116 116 118 119 116 109 107 112 114 114 116 120 118 112 104 103 108 113 117 115 110 107 102 95 86 79 72 66 62 60 60 62 65 66 70 74 75 70 65 64 65 68 71 72 71 69 68 67 66 66 66 67 67 69 71 71 70 69 67 64 62 61 60 57 54